Probability
0 0 0 0 0 1 0 0 0 0 0 1 1 1 0 0 0 0 0 0 0 0 0 0 0 0 0 0 0 0 0 0 0 0 0 0 0 0 0 0 0 0 0
0 0 0 0 0 1 0 0 0 0 0 0 1 1 1 0 0 0 0 0 0 0 0 0 0 0 0 0 0 0 0 0 0 0 0 0 0 0 0 0 0 0 0
0 0 0 0 0 0 0 0 0 0 0 0 0 1 1 0 0 0 0 0 0 0 0 0 0 0 0 0 0 0 0 0 0 0 0 0 0 0 0 0 0 0 0
0 0 0 0 0 0 0 0 0 0 0 0 0 0 0 0 0 0 0 0 0 0 0 0 0 0 0 0 0 0 0 0 0 0 0 0 0 0 0 0 0 0 0
0 0 0 0 0 0 0 0 0 0 0 0 0 0 0 0 0 0 0 0 0 0 0 0 0 0 0 0 0 0 0 0 0 0 0 0 0 0 0 0 0 0 0
0 0 0 0 0 0 0 0 0 0 0 0 0 0 0 0 0 0 0 0 0 0 0 0 0 0 0 0 0 0 0 0 0 0 0 0 0 0 0 0 0 0 0
0 0 0 0 0 0 0 0 0 0 0 0 0 0 0 0 0 0 0 0 0 0 0 0 0 0 0 0 0 0 0 0 0 0 0 0 0 0 0 0 0 0 0
0 0 0 0 0 0 0 0 0 0 0 0 0 0 0 0 0 0 0 0 0 0 0 0 0 0 0 0 0 0 0 0 0 0 0 0 0 0 0 0 0 0 0
0 0 0 0 0 0 0 0 0 0 0 0 0 0 0 0 0 0 0 0 0 0 0 0 0 0 0 0 0 0 0 0 0 0 0 0 0 0 0 0 0 0 0
0 0 0 0 0 0 0 0 0 0 0 0 0 0 0 0 0 0 0 0 0 0 0 0 0 0 0 0 0 0 0 0 0 0 0 0 0 0 0 0 0 0 0
0 0 0 0 0 0 0 0 0 0 0 0 0 0 0 0 0 0 0 0 0 0 0 0 0 0 0 0 0 0 0 0 0 0 0 0 0 0 0 0 0 0 0
0 0 0 0 0 0 0 0 0 0 0 0 0 0 0 0 0 0 0 0 0 0 0 0 0 0 0 0 0 0 0 0 0 0 0 0 0 0 0 0 0 0 0
0 0 0 0 0 0 0 0 0 0 0 0 0 0 0 0 0 0 0 0 0 0 0 0 0 0 0 0 0 0 0 0 0 0 0 0 0 0 0 0 0 0 0
0 0 0 0 0 0 0 0 0 0 0 0 0 0 0 0 0 0 0 0 0 0 0 0 0 0 0 0 0 0 0 0 0 0 0 0 0 0 0 0 0 0 0
0 0 0 0 0 0 0 0 0 0 0 0 0 0 0 0 0 0 0 0 0 0 0 0 0 0 0 0 0 0 0 0 0 0 0 0 0 0 0 0 0 0 0
0 0 0 0 0 0 0 0 0 0 0 0 0 0 0 0 0 0 0 0 0 0 0 0 0 0 0 0 0 0 0 0 0 0 0 0 0 0 0 0 0 0 0
0 0 0 0 0 0 0 0 0 0 0 0 0 0 0 0 0 0 0 0 0 0 0 0 0 0 0 0 0 0 0 0 0 0 0 0 0 0 0 0 0 0 0
0 0 0 0 0 0 0 0 0 0 0 0 0 0 0 0 0 0 0 0 0 0 0 0 0 0 0 0 0 0 0 0 0 0 0 0 0 0 0 0 0 0 0
0 0 0 0 0 0 0 0 0 0 0 0 0 0 0 0 0 0 0 0 0 0 0 0 0 0 0 0 0 0 0 0 0 0 0 0 0 0 0 0 0 0 0
0 0 0 0 0 0 0 0 0 0 0 0 0 0 0 0 0 0 0 0 0 0 0 0 0 0 0 0 0 0 0 0 0 0 0 0 0 0 0 0 0 0 0
0 0 0 0 0 0 0 0 0 0 0 0 0 0 0 0 0 0 0 0 0 0 0 0 0 0 0 0 0 0 0 0 0 0 0 0 0 0 0 0 0 0 0
0 0 0 0 0 0 0 0 0 0 0 0 0 0 0 0 0 0 0 0 0 0 0 0 0 0 0 0 0 0 0 0 0 0 0 0 0 0 0 0 0 0 0
0 0 0 0 0 0 0 0 0 0 0 0 0 0 0 0 0 0 0 0 0 0 0 0 0 0 0 0 0 0 0 0 0 0 0 0 0 0 0 0 0 0 0
0 0 0 0 0 0 0 0 0 0 0 0 0 0 0 0 0 0 0 0 0 0 0 0 0 0 0 0 0 0 0 0 0 0 0 0 0 0 0 0 0 0 0
0 0 0 0 0 0 0 0 0 0 0 0 0 0 0 0 0 0 0 0 0 0 0 0 0 0 0 0 0 0 0 0 0 0 0 0 0 0 0 0 0 0 0
0 0 0 0 0 0 0 0 0 0 0 0 0 0 0 0 0 0 0 0 0 0 0 0 0 0 0 0 0 0 0 0 0 0 0 0 0 0 0 0 0 0 0
Wind_Speed
15 14 13 13 13 12 11 12 12 11 12 13 13 13 12 12 11 10 9 9 9 8 7 7 7 5 4 3 3 3 3 3 4 3 1 0 1 1 1 1 3 3 4
13 13 13 12 12 12 11 12 12 12 12 12 13 12 12 12 11 11 11 10 10 9 8 8 7 5 5 4 4 4 3 3 3 3 1 0 1 2 1 2 2 3 3
11 12 13 12 13 12 12 11 11 11 11 12 12 12 12 11 11 11 10 10 9 9 8 8 7 7 6 4 4 4 3 2 2 2 2 1 1 1 1 2 3 3 4
10 12 13 13 13 12 12 11 11 11 11 11 11 11 11 10 10 10 9 9 8 7 7 7 7 8 7 6 4 4 3 2 1 1 1 1 1 1 1 2 3 3 4
10 11 11 11 11 11 11 11 10 10 10 10 10 10 9 9 8 9 9 9 8 7 6 6 6 6 6 5 4 4 4 3 2 1 1 1 1 1 2 2 3 3 4
11 10 10 11 11 11 11 11 10 10 10 10 10 10 9 7 11 13 10 8 8 8 7 6 5 6 6 6 6 6 5 4 3 3 2 2 3 2 1 2 2 3 4
10 10 11 11 12 11 11 11 11 11 10 10 10 10 9 9 14 14 13 8 7 7 7 6 4 5 6 4 4 4 3 4 4 3 3 3 2 2 1 2 2 3 4
10 10 11 11 12 11 12 12 10 10 10 9 9 10 9 9 14 15 14 8 7 6 6 6 6 5 5 5 4 3 2 1 1 1 2 2 1 1 1 2 3 3 4
10 11 11 12 13 12 12 11 10 10 9 9 9 10 10 10 13 15 13 7 7 6 6 6 6 5 7 7 5 3 2 0 1 2 2 2 3 4 3 2 2 3 4
11 11 11 11 12 13 12 11 9 10 9 9 9 9 10 9 13 14 13 7 7 6 5 5 7 7 7 7 5 4 3 1 1 1 2 2 2 2 4 1 0 2 3
9 10 11 11 11 12 11 10 11 10 10 10 10 8 8 10 12 14 12 7 7 6 5 4 4 8 7 7 6 3 2 3 2 2 1 1 2 2 2 2 1 1 2
10 11 11 11 11 11 12 11 11 12 12 11 10 9 7 8 10 11 13 10 9 7 6 4 5 9 8 7 5 5 5 5 2 2 1 1 1 2 2 2 2 2 3
11 11 12 12 11 11 12 12 11 10 9 9 9 8 7 6 8 13 14 13 13 7 6 10 10 10 9 6 7 7 5 3 2 2 1 1 1 2 2 2 3 3 4
12 12 12 12 11 10 8 9 9 9 9 9 9 9 8 6 6 6 6 8 11 9 7 10 12 10 7 6 5 4 3 2 2 1 1 1 1 2 2 2 2 3 3
12 12 12 11 12 11 9 6 7 6 9 11 9 9 10 8 8 12 9 7 6 7 8 5 4 4 3 3 3 2 2 2 2 1 1 1 2 2 2 2 2 2 3
13 12 10 10 10 11 12 11 14 12 15 15 13 12 9 12 16 16 15 15 15 14 8 5 4 3 3 3 2 2 2 1 1 1 1 1 2 2 3 3 2 2 3
13 12 10 11 11 11 11 12 12 13 18 17 17 17 16 18 18 17 17 16 14 12 6 5 4 3 3 3 2 2 1 1 1 1 1 1 2 2 3 3 3 3 3
12 13 12 10 11 11 10 10 11 12 11 9 12 17 18 18 17 17 17 13 8 6 4 4 4 3 3 2 2 1 1 1 1 1 1 1 2 2 2 3 3 4 4
12 11 11 11 10 11 11 11 11 11 11 10 8 10 15 16 16 14 11 6 6 5 4 4 3 3 3 2 2 1 1 1 1 1 1 1 2 2 2 3 3 7 5
10 15 14 12 11 11 11 11 11 11 10 9 8 8 7 8 7 6 5 5 5 4 4 4 3 3 3 2 2 1 1 1 1 1 1 1 2 2 2 3 3 4 4
11 14 17 13 11 11 11 11 10 10 10 9 7 8 11 7 7 6 5 5 4 4 4 3 3 3 2 2 2 1 1 0 0 1 1 1 2 2 2 2 3 3 4
11 11 11 11 11 10 10 10 10 10 11 10 8 8 13 7 6 6 5 5 4 3 3 3 3 2 2 2 2 1 0 0 1 1 1 1 2 2 2 2 3 3 3
12 12 12 11 11 15 12 10 10 10 10 9 8 7 7 6 6 6 5 4 4 3 3 3 3 2 1 1 1 1 1 1 1 0 1 1 2 2 2 3 4 4 4
12 13 13 12 11 11 11 10 10 10 10 9 8 7 7 6 6 6 5 4 4 3 3 2 2 2 2 1 1 0 0 1 1 1 1 2 2 2 3 3 3 4 4
12 12 12 12 12 11 11 10 10 10 9 9 8 7 7 6 6 5 4 4 4 3 3 2 2 1 1 1 0 1 2 3 3 2 2 2 3 3 3 4 4 4 4
12 12 12 11 11 11 11 10 10 10 9 8 7 7 7 6 5 5 4 4 3 3 2 1 1 1 1 0 1 2 3 4 4 5 3 2 3 3 3 3 4 4 4
Wind_Direction
185 184 184 186 184 182 182 181 177 176 176 179 182 184 185 184 181 180 181 177 182 185 183 187 191 176 171 179 178 181 187 174 214 255 245 143 153 216 246 246 257 264 279
182 179 180 179 178 179 180 178 174 174 175 177 178 181 183 182 181 182 183 182 184 187 185 182 185 174 179 182 182 189 195 190 191 230 252 245 229 229 232 260 280 282 275
174 174 175 176 177 179 178 174 173 172 172 172 174 178 179 179 179 181 181 181 185 185 181 181 181 174 185 184 183 192 195 193 176 191 238 250 272 276 282 289 293 290 290
166 170 175 178 178 176 173 170 170 169 169 170 170 172 174 174 175 175 175 175 176 175 173 175 174 178 186 182 181 184 175 178 177 187 248 283 287 307 328 290 297 291 294
163 168 172 170 168 165 164 164 162 162 163 162 162 164 165 167 171 168 167 166 167 164 161 161 164 167 170 169 167 169 165 168 167 194 239 266 275 309 280 274 289 297 294
162 163 160 160 160 159 158 156 154 154 153 155 159 159 159 162 161 160 159 159 158 159 159 155 152 153 157 163 166 172 171 171 183 191 217 237 256 262 276 299 304 318 304
157 156 156 155 155 154 152 152 154 155 151 152 154 153 154 155 154 154 152 152 152 156 155 152 150 150 151 155 158 158 170 171 178 183 200 227 243 251 268 283 288 288 279
153 154 154 153 152 150 149 152 153 151 151 151 149 149 146 152 151 150 146 141 136 139 143 146 146 146 148 145 140 141 147 154 170 158 184 228 262 273 244 265 278 295 290
154 155 155 154 152 151 151 150 145 142 141 143 144 144 143 147 149 146 142 137 132 132 132 133 138 140 141 138 138 143 133 77 52 59 31 2 350 341 346 9 350 337 314
157 153 151 151 150 150 148 142 136 136 136 134 132 136 139 141 144 143 141 138 136 133 126 127 130 136 141 143 143 144 153 174 109 67 33 4 358 345 349 8 326 314 311
145 141 142 144 143 140 135 134 132 130 128 126 122 121 127 133 139 140 138 136 139 134 128 125 125 129 131 132 123 127 133 109 100 90 53 21 14 7 352 344 323 280 288
137 136 137 137 135 133 131 131 132 132 128 125 121 115 114 121 128 133 130 125 127 127 130 129 126 126 121 117 111 99 90 86 85 77 54 19 352 331 323 320 313 297 272
133 133 131 129 130 133 135 135 134 133 131 131 130 126 122 116 121 124 123 118 116 113 119 122 119 116 109 103 96 92 86 85 89 78 38 335 317 315 328 330 324 317 304
135 133 131 129 127 124 125 131 134 138 136 135 135 132 128 123 124 126 124 116 111 107 107 109 106 103 95 94 93 85 78 84 84 87 12 339 342 346 339 335 325 325 319
134 133 129 125 123 115 103 101 119 126 143 144 143 141 141 140 142 136 131 125 123 120 114 99 94 97 91 86 84 81 76 64 51 39 28 357 343 341 334 334 328 325 315
137 135 131 128 123 119 111 91 73 94 104 109 118 123 119 126 131 128 125 124 124 125 112 113 113 113 112 110 104 84 66 64 56 40 17 353 342 336 332 332 332 325 316
141 138 134 132 130 129 125 121 111 88 86 96 107 114 120 127 127 126 124 122 121 117 105 113 115 117 114 110 107 103 85 62 64 45 12 350 342 336 332 329 329 327 320
135 134 134 133 132 130 128 126 125 124 116 100 101 113 119 122 123 124 123 115 108 97 104 116 118 117 113 111 108 97 80 57 42 21 356 339 334 329 326 326 325 324 321
135 135 131 128 126 125 124 121 119 118 118 118 112 111 115 116 114 115 115 109 119 116 111 111 112 113 111 109 105 99 95 76 35 8 339 331 327 326 320 318 320 328 330
130 131 129 128 126 125 124 124 124 124 124 125 126 126 124 117 114 112 100 103 110 114 114 113 111 112 113 112 109 102 90 59 16 350 323 323 325 325 317 315 319 320 317
131 129 126 124 126 128 128 128 128 127 127 125 125 134 134 124 122 120 114 109 112 115 114 112 111 112 111 112 112 108 99 18 339 325 319 320 325 321 312 310 311 311 311
130 130 130 128 126 125 124 124 125 125 125 124 123 125 124 112 116 117 114 111 107 106 110 113 111 109 117 124 125 121 112 333 326 326 322 323 321 314 311 311 311 310 312
127 126 123 122 122 124 121 121 123 124 124 124 126 123 120 116 117 117 116 113 109 106 103 106 108 101 92 100 117 139 170 246 268 276 316 315 311 307 307 307 309 310 312
128 128 126 125 123 124 125 124 123 124 124 126 126 125 123 121 119 117 116 113 111 107 106 109 115 122 114 101 99 102 197 243 231 220 248 268 282 288 292 293 296 300 300
128 127 127 128 127 127 126 125 125 125 126 127 128 126 123 121 120 120 120 118 116 114 112 110 118 124 127 136 193 247 276 290 286 268 239 243 261 270 277 283 287 292 293
125 124 124 125 126 128 129 129 129 128 128 127 126 126 126 124 124 124 123 121 119 117 115 113 127 135 154 208 246 270 287 288 286 286 272 240 249 266 275 278 281 285 290